sat.trackr.live / text

‹ back to catalog

STARLINK-11486 [DTC]

NORAD 62467 · 2024-254F

PAYLOAD ACTIVE UNKNOWN

§ Identity

Operator
Country
US
Launch date
2024-12-31
Launch site
AFETR
Launch vehicle
Mass (kg)
RCS (m²)

Purposes: comms

External: N2YO · Heavens-Above · Gunter

§ Orbital elements

Epoch: 2026-05-25T05:13:56.639424Z

Period
91.67 min
Inclination
43.0018°
Eccentricity
0.0002139
Mean motion
15.70855385 rev/d
Perigee alt
355.0 km
Apogee alt
357.9 km
Semi-major
6,734.6 km
B*
1.2124e-3
RAAN
122.0075°
Arg perigee
256.0517°
Mean anomaly
104.0113°
Rev number
8,143

§ Raw data

STARLINK-11486 [DTC]1 62467U 24254F   26145.21801666  .00158217  00000+0  12124-2 0  99952 62467  43.0018 122.0075 0002139 256.0517 104.0113 15.70855385 81434

JSON: /api/v1/satellites/62467 · /tle

For live sub-satellite position, see the globe view (requires WebGL).

§ Visibility from observer

Set your observer location to see the next 7 days of passes ≥ 10°. The values pass through the URL so the page stays shareable.

No JS? Fill the form by hand. The geolocation button needs JavaScript.